FW0765 Weather Reports


Display with metric or nautical units.
time (UTC)temp
F
wind
direction
speed
MPH
gust
MPH
rain 1hr
in
rain 24hr
in
rain mn
in
humidity
%
barometer
mb
20260506211548 70 78 3.0 8.0 0.00 0.03 0.03 63 1011.6
20260506210048 69 41 5.0 10.0 0.00 0.03 0.03 65 1011.5
20260506204543 68 38 6.0 11.0 0.00 0.03 0.03 66 1011.4
20260506203119 67 51 7.0 10.0 0.00 0.03 0.03 69 1011.8
20260506201546 65 34 5.0 9.0 0.00 0.03 0.03 71 1012.0
20260506200047 64 49 5.0 10.0 0.00 0.03 0.03 72 1012.6
20260506194640 63 53 4.0 9.0 0.00 0.03 0.03 75 1012.6
20260506193039 62 84 4.0 10.0 0.00 0.03 0.03 76 1012.6
20260506191538 61 82 4.0 9.0 0.00 0.03 0.03 78 1012.9
20260506190046 60 73 4.0 9.0 0.00 0.03 0.03 79 1013.2
20260506184545 60 105 4.0 10.0 0.00 0.03 0.03 79 1013.0
20260506183036 60 106 5.0 11.0 0.00 0.03 0.03 78 1013.2
20260506181538 60 36 7.0 12.0 0.00 0.03 0.03 78 1013.3
20260506180037 60 38 6.0 11.0 0.00 0.03 0.03 79 1013.4
20260506174534 60 45 6.0 13.0 0.00 0.03 0.03 78 1013.4
20260506173044 59 45 6.0 12.0 0.00 0.03 0.03 78 1013.5
20260506171536 59 69 6.0 11.0 0.00 0.03 0.03 79 1013.5
20260506170031 58 47 6.0 13.0 0.00 0.03 0.03 80 1013.4
20260506164530 57 43 7.0 12.0 0.00 0.03 0.03 81 1013.1
20260506163047 57 61 8.0 13.0 0.00 0.03 0.03 82 1013.1
20260506161528 56 36 7.0 11.0 0.00 0.03 0.03 84 1012.8
20260506160025 56 30 6.0 12.0 0.00 0.03 0.03 85 1012.7
20260506154531 55 42 5.0 11.0 0.00 0.03 0.03 86 1012.6
20260506153027 54 38 4.0 9.0 0.00 0.03 0.03 88 1012.2
20260506151521 54 54 5.0 11.0 0.00 0.03 0.03 89 1012.3
20260506150019 53 29 7.0 15.0 0.00 0.03 0.03 90 1012.0
20260506144517 53 41 10.0 15.0 0.00 0.03 0.03 90 1011.5
20260506143015 52 5 6.0 16.0 0.01 0.03 0.03 90 1012.0
20260506141513 52 43 11.0 16.0 0.02 0.03 0.03 90 1011.4
20260506140018 52 49 6.0 13.0 0.02 0.03 0.03 90 1011.0
20260506134510 52 49 6.0 12.0 0.02 0.03 0.03 89 1011.0
20260506133109 53 51 7.0 14.0 0.02 0.02 0.02 88 1011.3
20260506131508 53 37 5.0 11.0 0.01 0.01 0.01 88 1010.5
20260506130003 53 81 6.0 14.0 0.01 0.01 0.01 86 1010.2
20260506124601 54 75 8.0 17.0 0.01 0.01 0.01 84 1009.4
20260506123110 55 38 6.0 12.0 0.00 0.00 0.00 83 1010.8
20260506121608 55 63 3.0 12.0 0.00 0.00 0.00 82 1010.3
20260506120052 55 52 6.0 15.0 0.00 0.00 0.00 82 1009.1
20260506114549 55 21 6.0 14.0 0.00 0.00 0.00 81 1010.4
20260506113047 55 84 4.0 11.0 0.00 0.00 0.00 81 1009.2
20260506111546 55 85 6.0 12.0 0.00 0.00 0.00 81 1008.9
20260506110045 55 71 4.0 12.0 0.00 0.00 0.00 81 1009.1
20260506104540 56 40 8.0 13.0 0.00 0.00 0.00 80 1008.5
20260506103037 56 65 7.0 13.0 0.00 0.00 0.00 79 1008.1
20260506101534 57 63 8.0 13.0 0.00 0.00 0.00 79 1008.3
20260506100031 58 45 5.0 12.0 0.00 0.00 0.00 79 1008.1
20260506094528 59 36 3.0 9.0 0.00 0.00 0.00 79 1008.0
20260506093025 59 62 5.0 9.0 0.00 0.00 0.00 79 1007.7
20260506091523 59 57 5.0 10.0 0.00 0.00 0.00 79 1007.4
20260506090023 60 32 4.0 9.0 0.00 0.00 0.00 78 1006.9
20260506084519 61 25 6.0 10.0 0.00 0.00 0.00 79 1007.1
20260506083017 62 45 2.0 7.0 0.00 0.00 0.00 79 1007.5
20260506081510 62 55 4.0 9.0 0.00 0.00 0.00 78 1007.2
20260506073005 64 69 4.0 10.0 0.00 0.00 0.00 76 1007.0
20260506071503 65 73 3.0 9.0 0.00 0.00 0.00 76 1006.9
20260506061552 67 61 3.0 6.0 0.00 0.00 0.00 69 1006.5
20260506050104 68 348 0.0 2.0 0.00 0.00 0.00 62 1006.3
20260506044544 69 348 0.0 2.0 0.00 0.00 0.00 59 1006.1
20260506043040 69 348 1.0 4.0 0.00 0.00 0.00 59 1006.0
20260506041555 70 355 0.0 2.0 0.00 0.00 0.00 57 1006.0
20260506040039 71 355 0.0 2.0 0.00 0.00 0.00 53 1005.8
20260506034549 72 355 1.0 4.0 0.00 0.00 0.00 51 1005.8
20260506033039 74 342 1.0 3.0 0.00 0.00 0.00 47 1005.8
20260506031536 76 342 0.0 1.0 0.00 0.00 0.00 41 1005.8
20260506030038 77 342 0.0 4.0 0.00 0.00 0.00 38 1005.4
20260506024536 75 314 1.0 3.0 0.00 0.00 0.00 44 1005.1
20260506023034 76 313 0.0 2.0 0.00 0.00 0.00 44 1005.1
20260506021534 78 313 1.0 2.0 0.00 0.00 0.00 39 1005.0
20260506020034 80 313 0.0 1.0 0.00 0.00 0.00 33 1004.9
20260506014534 82 313 1.0 5.0 0.00 0.00 0.00 31 1004.6
20260506013047 83 301 5.0 10.0 0.00 0.00 0.00 31 1004.4
20260506011540 82 298 3.0 5.0 0.00 0.00 0.00 35 1004.0
20260506010034 84 302 2.0 6.0 0.00 0.00 0.00 40 1004.1
20260506004531 86 266 2.0 6.0 0.00 0.00 0.00 34 1003.8
20260506003030 87 265 1.0 2.0 0.00 0.00 0.00 34 1003.6
20260506001530 87 266 2.0 7.0 0.00 0.00 0.00 33 1003.6
20260506000029 87 279 3.0 5.0 0.00 0.00 0.00 30 1003.5
20260505234531 88 259 3.0 7.0 0.00 0.00 0.00 27 1003.3
20260505233029 88 250 4.0 9.0 0.00 0.00 0.00 28 1003.4
20260505231528 89 275 5.0 9.0 0.00 0.00 0.00 26 1003.5
20260505230026 89 300 3.0 10.0 0.00 0.00 0.00 29 1003.5
20260505224524 88 291 3.0 9.0 0.00 0.00 0.00 28 1003.6
20260505223035 89 265 3.0 7.0 0.00 0.00 0.00 29 1003.5
20260505221525 89 288 4.0 8.0 0.00 0.00 0.00 29 1003.6
20260505220039 90 287 4.0 10.0 0.00 0.00 0.00 28 1003.6
20260505214528 90 263 6.0 13.0 0.00 0.00 0.00 25 1003.6
20260505213024 90 281 5.0 11.0 0.00 0.00 0.00 28 1003.7